IBS15PM GCXO-LEMD

Flight info

Callsign IBS15PM
Flight time N/A
Altitude 36000
Route VASTO UN858 AKUDA DCT GIMAL DCT PESAS DCT PARKA DCT SOTUK
Aircraft A320/M-SDE3FGHIRWY/LB1

Departure

Time 2026-05-07 19:48
Airport Tenerife Norte-Ciudad de La Laguna Airport (GCXO)

Arrival

Time N/A
Airport Adolfo Suárez Madrid–Barajas Airport (LEMD)
Time Latitude Longitude Altitude Speed Heading
2026-05-07 19:38 28.48730 -16.34831 2075 ft 0 kts 59°
2026-05-07 19:39 28.48724 -16.34844 2075 ft 2 kts 59°
2026-05-07 19:39 28.48715 -16.34860 2053 ft 2 kts 59°
2026-05-07 19:39 28.48708 -16.34877 2077 ft 2 kts 66°
2026-05-07 19:39 28.48701 -16.34893 2076 ft 2 kts 66°
2026-05-07 19:40 28.48694 -16.34911 2077 ft 2 kts 66°
2026-05-07 19:40 28.48688 -16.34927 2077 ft 2 kts 66°
2026-05-07 19:40 28.48685 -16.34935 2077 ft 0 kts 64°
2026-05-07 19:40 28.48677 -16.34949 2080 ft 2 kts 44°
2026-05-07 19:41 28.48666 -16.34961 2081 ft 2 kts 61°
2026-05-07 19:41 28.48661 -16.34978 2084 ft 2 kts 96°
2026-05-07 19:41 28.48662 -16.34989 2084 ft 0 kts 111°
2026-05-07 19:43 28.48634 -16.34913 2083 ft 22 kts 112°
2026-05-07 19:43 28.48554 -16.34681 2073 ft 39 kts 113°
2026-05-07 19:44 28.48447 -16.34362 2057 ft 43 kts 109°
2026-05-07 19:44 28.48347 -16.34046 2050 ft 39 kts 111°
2026-05-07 19:44 28.48267 -16.33800 2041 ft 28 kts 111°
2026-05-07 19:44 28.48196 -16.33585 2039 ft 30 kts 111°
2026-05-07 19:45 28.48118 -16.33356 2038 ft 32 kts 112°
2026-05-07 19:45 28.48038 -16.33110 2029 ft 35 kts 107°
2026-05-07 19:45 28.47955 -16.32871 2015 ft 26 kts 111°
2026-05-07 19:45 28.47893 -16.32674 2012 ft 25 kts 114°
2026-05-07 19:46 28.47796 -16.32510 2011 ft 23 kts 161°
2026-05-07 19:46 28.47755 -16.32520 2010 ft 0 kts 212°
2026-05-07 19:46 28.47739 -16.32534 2012 ft 5 kts 223°
2026-05-07 19:47 28.47739 -16.32543 2014 ft 0 kts 278°
2026-05-07 19:47 28.47751 -16.32600 2015 ft 14 kts 290°
2026-05-07 19:47 28.47864 -16.32939 2030 ft 81 kts 291°
2026-05-07 19:47 28.48135 -16.33752 2044 ft 136 kts 291°
2026-05-07 19:48 28.48511 -16.34868 2357 ft 155 kts 293°
2026-05-07 19:48 28.48895 -16.35968 3238 ft 149 kts 293°
2026-05-07 19:48 28.49307 -16.37139 3580 ft 170 kts 292°
2026-05-07 19:48 28.49771 -16.38466 3871 ft 192 kts 291°
2026-05-07 19:49 28.50295 -16.39971 4179 ft 217 kts 291°
2026-05-07 19:49 28.50881 -16.41659 4620 ft 241 kts 291°
2026-05-07 19:49 28.51521 -16.43506 5260 ft 255 kts 290°
2026-05-07 19:49 28.52173 -16.45398 6177 ft 259 kts 291°
2026-05-07 19:50 28.52832 -16.47314 7082 ft 261 kts 291°
2026-05-07 19:50 28.53490 -16.49221 7988 ft 263 kts 291°
2026-05-07 19:50 28.54308 -16.51092 8867 ft 266 kts 306°
2026-05-07 19:50 28.55710 -16.52484 9752 ft 273 kts 330°
2026-05-07 19:51 28.57563 -16.53048 10541 ft 285 kts 355°
2026-05-07 19:51 28.59533 -16.52556 11308 ft 300 kts 22°
2026-05-07 19:51 28.61160 -16.50978 11924 ft 324 kts 50°
2026-05-07 19:51 28.62061 -16.48509 12180 ft 356 kts 79°
2026-05-07 19:52 28.61920 -16.45614 12540 ft 377 kts 103°
2026-05-07 19:52 28.61010 -16.42778 13171 ft 384 kts 116°
2026-05-07 19:52 28.59738 -16.40079 13835 ft 389 kts 121°
2026-05-07 19:52 28.58343 -16.37413 14448 ft 394 kts 122°
2026-05-07 19:53 28.56956 -16.34693 15064 ft 399 kts 121°
2026-05-07 19:53 28.55639 -16.31890 15705 ft 404 kts 118°
2026-05-07 19:53 28.54656 -16.28880 16319 ft 410 kts 103°
2026-05-07 19:53 28.54389 -16.25642 16925 ft 415 kts 87°
2026-05-07 19:54 28.54771 -16.22419 17504 ft 418 kts 74°
2026-05-07 19:54 28.55552 -16.19211 18094 ft 423 kts 72°
2026-05-07 19:54 28.56336 -16.15964 18628 ft 428 kts 73°
2026-05-07 19:54 28.57116 -16.12671 19083 ft 433 kts 73°
2026-05-07 19:55 28.57897 -16.09343 19577 ft 438 kts 74°
2026-05-07 19:55 28.58687 -16.05973 20071 ft 442 kts 74°
2026-05-07 19:55 28.59485 -16.02576 20546 ft 447 kts 74°
2026-05-07 19:55 28.60297 -15.99137 21016 ft 451 kts 74°
2026-05-07 19:56 28.61118 -15.95674 21470 ft 456 kts 74°
2026-05-07 19:56 28.61947 -15.92173 21925 ft 460 kts 74°
2026-05-07 19:56 28.62785 -15.88634 22398 ft 465 kts 74°
2026-05-07 19:56 28.63631 -15.85060 22831 ft 469 kts 74°
2026-05-07 19:57 28.64476 -15.81494 23262 ft 473 kts 75°
2026-05-07 19:57 28.65336 -15.77853 23681 ft 478 kts 75°
2026-05-07 19:57 28.66198 -15.74186 24049 ft 481 kts 75°
2026-05-07 19:57 28.67063 -15.70492 24423 ft 485 kts 75°
2026-05-07 19:58 28.67933 -15.66773 24798 ft 488 kts 75°
2026-05-07 19:58 28.68810 -15.63031 25173 ft 491 kts 74°
2026-05-07 19:58 28.69695 -15.59257 25531 ft 494 kts 74°
2026-05-07 19:58 28.70582 -15.55465 25887 ft 497 kts 74°
2026-05-07 19:59 28.71478 -15.51629 26242 ft 500 kts 74°
2026-05-07 19:59 28.72374 -15.47782 26599 ft 503 kts 75°
2026-05-07 19:59 28.73275 -15.43912 26947 ft 506 kts 75°
2026-05-07 19:59 28.74178 -15.40025 27279 ft 509 kts 74°
2026-05-07 20:00 28.75076 -15.36163 27625 ft 512 kts 74°
2026-05-07 20:00 28.76038 -15.32248 27966 ft 514 kts 69°
2026-05-07 20:00 28.77586 -15.28593 28297 ft 512 kts 52°
2026-05-07 20:00 28.79820 -15.25474 28607 ft 506 kts 39°
2026-05-07 20:01 28.82327 -15.22646 28925 ft 509 kts 39°
2026-05-07 20:01 28.84859 -15.19803 29246 ft 511 kts 39°
2026-05-07 20:01 28.87401 -15.16949 29563 ft 514 kts 39°
2026-05-07 20:01 28.89959 -15.14071 29875 ft 517 kts 39°
2026-05-07 20:02 28.92524 -15.11180 30159 ft 520 kts 39°
2026-05-07 20:02 28.95105 -15.08264 30413 ft 522 kts 39°
2026-05-07 20:02 28.97691 -15.05339 30667 ft 525 kts 39°
2026-05-07 20:02 29.00260 -15.02424 30921 ft 527 kts 39°
2026-05-07 20:03 29.02862 -14.99464 31171 ft 529 kts 39°
2026-05-07 20:03 29.05476 -14.96487 31471 ft 530 kts 39°
2026-05-07 20:03 29.08082 -14.93519 31836 ft 529 kts 39°
2026-05-07 20:03 29.10686 -14.90553 32196 ft 528 kts 39°
2026-05-07 20:04 29.13292 -14.87587 32565 ft 527 kts 39°
2026-05-07 20:04 29.15891 -14.84631 32908 ft 527 kts 39°
2026-05-07 20:04 29.18490 -14.81675 33259 ft 526 kts 39°
2026-05-07 20:04 29.21087 -14.78722 33596 ft 526 kts 39°
2026-05-07 20:05 29.23686 -14.75765 33958 ft 526 kts 39°
2026-05-07 20:05 29.26274 -14.72813 34277 ft 525 kts 39°
2026-05-07 20:05 29.28858 -14.69860 34593 ft 524 kts 39°
2026-05-07 20:05 29.31441 -14.66903 34897 ft 524 kts 39°
2026-05-07 20:06 29.34014 -14.63953 35195 ft 523 kts 39°
2026-05-07 20:06 29.36559 -14.61033 35485 ft 522 kts 38°
2026-05-07 20:06 29.39124 -14.58092 35776 ft 521 kts 38°
2026-05-07 20:06 29.41693 -14.55146 35995 ft 521 kts 38°
2026-05-07 20:07 29.46800 -14.49288 36031 ft 518 kts 38°
2026-05-07 20:07 29.51848 -14.43484 36033 ft 518 kts 38°
2026-05-07 20:09 29.55247 -14.39570 36034 ft 518 kts 38°
2026-05-07 20:10 29.62901 -14.30750 36034 ft 519 kts 38°